| time (UTC) | temp C | wind direction | speed KPH | gust KPH | rain 1hr cm | rain 24hr cm | rain mn cm | humidity % | barometer mb |
| 20260507000034 | 6 | 254 | 0.0 | 9.7 | 0.00 | 0.94 | 0.36 | 93 | 958.8 |
| 20260506234533 | 6 | 269 | 1.6 | 4.8 | 0.00 | 0.94 | 0.36 | 93 | 958.5 |
| 20260506233033 | 6 | 269 | 1.6 | 4.8 | 0.00 | 0.94 | 0.36 | 93 | 958.6 |
| 20260506231526 | 6 | 325 | 1.6 | 6.4 | 0.00 | 0.94 | 0.36 | 93 | 958.5 |
| 20260506230023 | 6 | 309 | 1.6 | 6.4 | 0.00 | 0.94 | 0.36 | 93 | 958.2 |
| 20260506224523 | 6 | 320 | 1.6 | 9.7 | 0.00 | 0.97 | 0.36 | 93 | 958.2 |
| 20260506223020 | 6 | 295 | 1.6 | 6.4 | 0.00 | 0.97 | 0.36 | 93 | 957.6 |
| 20260506221530 | 6 | 289 | 3.2 | 9.7 | 0.00 | 0.97 | 0.36 | 93 | 957.8 |
| 20260506220033 | 6 | 219 | 0.0 | 6.4 | 0.00 | 0.97 | 0.36 | 93 | 957.6 |
| 20260506214525 | 6 | 217 | 3.2 | 6.4 | 0.00 | 0.97 | 0.36 | 93 | 958.0 |
| 20260506213022 | 7 | 267 | 4.8 | 14.5 | 0.00 | 0.97 | 0.36 | 93 | 957.7 |
| 20260506211532 | 7 | 259 | 4.8 | 14.5 | 0.03 | 0.97 | 0.36 | 93 | 957.4 |
| 20260506210028 | 7 | 317 | 1.6 | 9.7 | 0.03 | 0.97 | 0.36 | 93 | 957.0 |
| 20260506204527 | 7 | 323 | 1.6 | 9.7 | 0.03 | 0.97 | 0.36 | 93 | 956.9 |
| 20260506203025 | 7 | 255 | 1.6 | 16.1 | 0.05 | 0.97 | 0.36 | 93 | 956.6 |
| 20260506201510 | 7 | 305 | 0.0 | 6.4 | 0.10 | 0.94 | 0.33 | 93 | 956.0 |
| 20260506200010 | 7 | 319 | 0.0 | 11.3 | 0.10 | 0.94 | 0.33 | 93 | 955.9 |
| 20260506194608 | 7 | 344 | 1.6 | 8.0 | 0.10 | 0.97 | 0.33 | 93 | 956.0 |
| 20260506193006 | 8 | 310 | 3.2 | 12.9 | 0.10 | 0.94 | 0.30 | 93 | 956.0 |
| 20260506191511 | 8 | 306 | 0.0 | 6.4 | 0.05 | 0.89 | 0.25 | 93 | 955.9 |
| 20260506190007 | 8 | 297 | 0.0 | 4.8 | 0.03 | 0.86 | 0.23 | 93 | 955.6 |
| 20260506184505 | 8 | 303 | 1.6 | 8.0 | 0.03 | 0.86 | 0.23 | 93 | 955.5 |
| 20260506183004 | 8 | 315 | 3.2 | 12.9 | 0.03 | 0.84 | 0.20 | 92 | 955.4 |
| 20260506181558 | 8 | 325 | 3.2 | 19.3 | 0.03 | 0.84 | 0.20 | 92 | 955.0 |
| 20260506180054 | 9 | 315 | 1.6 | 14.5 | 0.03 | 0.84 | 0.20 | 92 | 954.9 |
| 20260506174551 | 10 | 315 | 1.6 | 6.4 | 0.03 | 0.84 | 0.20 | 92 | 954.7 |
| 20260506173147 | 10 | 311 | 3.2 | 9.7 | 0.05 | 0.84 | 0.20 | 92 | 954.8 |
| 20260506171554 | 11 | 298 | 0.0 | 6.4 | 0.03 | 0.81 | 0.18 | 93 | 954.7 |
| 20260506170045 | 12 | 355 | 0.0 | 8.0 | 0.03 | 0.81 | 0.18 | 94 | 954.5 |
| 20260506164545 | 13 | 224 | 1.6 | 6.4 | 0.03 | 0.81 | 0.18 | 94 | 954.8 |
| 20260506163059 | 12 | 201 | 0.0 | 4.8 | 0.03 | 0.79 | 0.15 | 94 | 954.6 |
| 20260506161544 | 12 | 269 | 0.0 | 6.4 | 0.03 | 0.79 | 0.15 | 94 | 954.4 |
| 20260506160042 | 12 | 157 | 0.0 | 11.3 | 0.08 | 0.79 | 0.15 | 94 | 954.4 |
| 20260506154546 | 12 | 186 | 0.0 | 6.4 | 0.08 | 0.79 | 0.15 | 94 | 954.8 |
| 20260506153042 | 12 | 194 | 0.0 | 8.0 | 0.10 | 0.76 | 0.13 | 94 | 954.6 |
| 20260506151557 | 12 | 175 | 3.2 | 9.7 | 0.10 | 0.76 | 0.13 | 94 | 954.6 |
| 20260506150052 | 12 | 167 | 0.0 | 0.0 | 0.10 | 0.71 | 0.10 | 94 | 954.8 |
| 20260506144550 | 12 | 167 | 0.0 | 0.0 | 0.13 | 0.71 | 0.08 | 94 | 954.7 |
| 20260506143048 | 12 | 167 | 0.0 | 0.0 | 0.10 | 0.66 | 0.03 | 94 | 954.5 |
| 20260506141549 | 12 | 167 | 0.0 | 0.0 | 0.20 | 0.66 | 0.03 | 94 | 954.5 |
| 20260506140052 | 12 | 167 | 0.0 | 0.0 | 0.25 | 0.64 | 0.00 | 93 | 954.6 |
| 20260506134540 | 11 | 167 | 0.0 | 0.0 | 0.33 | 0.61 | 0.61 | 93 | 954.9 |
| 20260506133039 | 11 | 168 | 0.0 | 1.6 | 0.36 | 0.56 | 0.56 | 93 | 955.1 |
| 20260506131534 | 11 | 161 | 0.0 | 8.0 | 0.33 | 0.48 | 0.48 | 93 | 955.3 |
| 20260506130033 | 11 | 158 | 0.0 | 0.0 | 0.28 | 0.41 | 0.41 | 93 | 955.6 |
| 20260506124532 | 11 | 158 | 0.0 | 3.2 | 0.18 | 0.30 | 0.30 | 93 | 955.5 |
| 20260506123031 | 11 | 72 | 0.0 | 0.0 | 0.10 | 0.20 | 0.20 | 92 | 955.1 |
| 20260506121537 | 11 | 51 | 0.0 | 0.0 | 0.05 | 0.15 | 0.15 | 92 | 955.0 |
| 20260506120037 | 11 | 51 | 0.0 | 0.0 | 0.03 | 0.13 | 0.13 | 92 | 954.9 |
| 20260506114537 | 11 | 51 | 0.0 | 0.0 | 0.05 | 0.13 | 0.13 | 92 | 955.3 |
| 20260506113036 | 11 | 51 | 0.0 | 0.0 | 0.03 | 0.10 | 0.10 | 92 | 955.5 |
| 20260506111527 | 11 | 51 | 0.0 | 0.0 | 0.03 | 0.10 | 0.10 | 91 | 955.8 |
| 20260506110027 | 11 | 51 | 0.0 | 1.6 | 0.05 | 0.10 | 0.10 | 91 | 955.7 |
| 20260506104523 | 11 | 51 | 0.0 | 1.6 | 0.03 | 0.08 | 0.08 | 91 | 955.5 |
| 20260506103023 | 11 | 51 | 0.0 | 1.6 | 0.03 | 0.08 | 0.08 | 91 | 955.5 |
| 20260506101536 | 10 | 51 | 0.0 | 0.0 | 0.03 | 0.08 | 0.08 | 91 | 955.2 |
| 20260506100039 | 10 | 51 | 0.0 | 0.0 | 0.00 | 0.05 | 0.05 | 91 | 954.9 |
| 20260506094532 | 10 | 51 | 0.0 | 1.6 | 0.00 | 0.05 | 0.05 | 91 | 955.1 |
| 20260506093052 | 10 | 51 | 0.0 | 1.6 | 0.00 | 0.05 | 0.05 | 90 | 955.0 |
| 20260506091527 | 10 | 51 | 0.0 | 1.6 | 0.00 | 0.05 | 0.05 | 90 | 955.2 |
| 20260506090026 | 10 | 51 | 0.0 | 0.0 | 0.00 | 0.05 | 0.05 | 90 | 955.4 |
| 20260506084526 | 10 | 51 | 0.0 | 1.6 | 0.00 | 0.05 | 0.05 | 89 | 955.6 |
| 20260506083026 | 10 | 51 | 0.0 | 3.2 | 0.00 | 0.05 | 0.05 | 89 | 955.9 |
| 20260506081528 | 10 | 51 | 0.0 | 3.2 | 0.00 | 0.05 | 0.05 | 88 | 955.8 |
| 20260506073027 | 10 | 51 | 0.0 | 0.0 | 0.00 | 0.05 | 0.05 | 88 | 955.7 |
| 20260506071509 | 10 | 51 | 0.0 | 0.0 | 0.00 | 0.05 | 0.05 | 88 | 955.7 |
| 20260506061511 | 10 | 51 | 3.2 | 6.4 | 0.00 | 0.05 | 0.05 | 88 | 956.2 |
| 20260506044558 | 10 | 355 | 0.0 | 0.0 | 0.00 | 0.05 | 0.05 | 88 | 957.5 |
| 20260506043053 | 10 | 355 | 0.0 | 0.0 | 0.00 | 0.05 | 0.05 | 87 | 957.5 |
| 20260506041559 | 10 | 355 | 0.0 | 0.0 | 0.00 | 0.05 | 0.05 | 87 | 957.5 |
| 20260506040047 | 11 | 349 | 0.0 | 1.6 | 0.00 | 0.05 | 0.05 | 86 | 957.7 |
| 20260506034543 | 11 | 349 | 0.0 | 3.2 | 0.00 | 0.05 | 0.05 | 85 | 957.6 |
| 20260506033042 | 11 | 315 | 0.0 | 1.6 | 0.00 | 0.05 | 0.05 | 84 | 957.9 |
| 20260506031507 | 11 | 306 | 0.0 | 4.8 | 0.00 | 0.05 | 0.05 | 83 | 957.9 |
| 20260506030005 | 12 | 344 | 0.0 | 3.2 | 0.00 | 0.05 | 0.05 | 82 | 958.0 |
| 20260506024504 | 12 | 23 | 1.6 | 8.0 | 0.00 | 0.05 | 0.05 | 81 | 957.7 |
| 20260506023058 | 13 | 333 | 1.6 | 11.3 | 0.00 | 0.05 | 0.05 | 80 | 957.8 |
| 20260506021553 | 13 | 171 | 0.0 | 6.4 | 0.00 | 0.05 | 0.05 | 82 | 957.7 |
| 20260506020116 | 15 | 351 | 0.0 | 6.4 | 0.00 | 0.05 | 0.05 | 84 | 957.7 |
| 20260506014547 | 15 | 315 | 0.0 | 0.0 | 0.00 | 0.05 | 0.05 | 83 | 957.6 |
| 20260506013044 | 15 | 315 | 0.0 | 3.2 | 0.00 | 0.05 | 0.05 | 83 | 957.3 |
| 20260506011548 | 15 | 315 | 0.0 | 4.8 | 0.00 | 0.05 | 0.05 | 83 | 957.0 |
| 20260506010041 | 16 | 326 | 0.0 | 4.8 | 0.00 | 0.05 | 0.05 | 83 | 957.1 |
| 20260506004543 | 16 | 270 | 0.0 | 1.6 | 0.00 | 0.05 | 0.05 | 82 | 956.6 |
| 20260506003037 | 16 | 270 | 0.0 | 1.6 | 0.00 | 0.05 | 0.05 | 81 | 956.1 |
| 20260506001556 | 16 | 270 | 0.0 | 3.2 | 0.00 | 0.05 | 0.05 | 80 | 956.0 |